Tracking 29747 objects as of 9-Oct-2024
HD Live streaming from Space Station
objects crossing your sky now

DELTA 1 DEB

Track DELTA 1 DEB now!
10-day predictions


NORAD ID: 21492
Int'l Code: 1975-052FM
Perigee: 1,094.1 km
Apogee: 1,186.6 km
Inclination: 99.8 °
Period: 108.0 minutes
Semi major axis: 7511 km
RCS: 0.0109 m2 (small)
Launch date: June 12, 1975
Source: United States (US)
Launch site: AIR FORCE WESTERN TEST RANGE (AFWTR)

Note: This is SATELLITE DEBRIS
Your satellite tracking list
Your tracking list is empty




NASA's NSSDC Master Catalog

Two Line Element Set (TLE):
1 21492U 75052FM  24282.33694847  .00000664  00000-0  14171-2 0  9991
2 21492  99.7504  61.0833 0061581 249.6643 140.6445 13.33590449626504
Source of the keplerian elements: AFSPC